Terug naar catalogus

TITAN 3C TRANSTAGE DEB

LostHEO
NORAD 13958·DEBRIS·🇺🇸 United States

Gelanceerd Dec 21, 1965 vanaf Cape Canaveral Space Force Station

Loading…

Volgende Passages (komende 24 uur)

TLE

VerouderdSource: Space-Track

Epoch: Aug 14, 2025, 11:27 UTC

1 13958U 65108X   25226.47724523 -.00000024  00000-0  66960-3 0  9994
2 13958  27.0653 294.1007 6815587 171.5223 338.5354  2.70123485210528

Volg TITAN 3C TRANSTAGE DEB in realtime met AllMySat

Download on the App Store